• In Deutschland
  • Länderverzeichnis
  • Für 7 Tage
  • Wassertemperatur
  • Satellitenkarten
  • Wetterkarte
  • Widgets
  • user-avatar
    Anmelden

    Stündliche Wetter Impfondo

    Heute, 22 November, Mittwoch

    Zeit Temperatur Niederschläge Wind Luftdruck Luftfeuchtigkeit
    00:00 +26°C° 0 mm 0 m/S 729 mmHg 61%
    01:00 +25°C° 0 mm 0 m/S 729 mmHg 64%
    02:00 +25°C° 0 mm 0 m/S 729 mmHg 66%
    03:00 +24°C° 0 mm 0 m/S 729 mmHg 68%
    04:00 +24°C° 0 mm 0 m/S 729 mmHg 70%
    05:00 +24°C° 0 mm 0 m/S 730 mmHg 69%
    06:00 +25°C° 0 mm 0 m/S 730 mmHg 69%
    07:00 +25°C° 0 mm 0 m/S 730 mmHg 68%
    08:00 +30°C° 0 mm 1 m/S 730 mmHg 60%
    09:00 +33°C° 0 mm 1 m/S 730 mmHg 51%
    10:00 +36°C° 0 mm 1 m/S 730 mmHg 42%
    11:00 +36°C° 0 mm 1 m/S 730 mmHg 39%
    12:00 +37°C° 0 mm 1 m/S 729 mmHg 37%
    13:00 +37°C° 0 mm 1 m/S 728 mmHg 34%
    14:00 +36°C° 0 mm 1 m/S 727 mmHg 38%
    15:00 +35°C° 0 mm 1 m/S 727 mmHg 43%
    16:00 +34°C° 0 mm 1 m/S 727 mmHg 48%
    17:00 +30°C° 0 mm 0 m/S 727 mmHg 51%
    18:00 +29°C° 0 mm 0 m/S 727 mmHg 54%
    19:00 +27°C° 0 mm 0 m/S 728 mmHg 58%
    20:00 +27°C° 0 mm 0 m/S 728 mmHg 60%
    21:00 +26°C° 0 mm 0 m/S 729 mmHg 63%
    22:00 +26°C° 0 mm 0 m/S 729 mmHg 65%
    23:00 +27°C° 0 mm 1 m/S 729 mmHg 69%

    Morgen, 23 November, Donnerstag

    Zeit Temperatur Niederschläge Wind Luftdruck Luftfeuchtigkeit
    00:00 +27°C° 0 mm 1 m/S 729 mmHg 72%
    01:00 +26°C° 0 mm 1 m/S 729 mmHg 76%
    02:00 +26°C° 0 mm 1 m/S 729 mmHg 79%
    03:00 +25°C° 0 mm 1 m/S 729 mmHg 82%
    04:00 +25°C° 0 mm 1 m/S 729 mmHg 86%
    05:00 +26°C° 0 mm 1 m/S 729 mmHg 84%
    06:00 +26°C° 0 mm 1 m/S 729 mmHg 81%
    07:00 +27°C° 0 mm 1 m/S 730 mmHg 79%
    08:00 +29°C° 0,2 mm 1 m/S 730 mmHg 73%
    09:00 +31°C° 0,2 mm 1 m/S 730 mmHg 66%
    10:00 +34°C° 0,2 mm 2 m/S 730 mmHg 60%
    11:00 +34°C° 0,1 mm 1 m/S 730 mmHg 53%
    12:00 +36°C° 0,1 mm 1 m/S 729 mmHg 46%
    13:00 +39°C° 0,1 mm 1 m/S 728 mmHg 39%
    14:00 +35°C° 0 mm 0 m/S 728 mmHg 42%
    15:00 +33°C° 0 mm 0 m/S 727 mmHg 46%
    16:00 +32°C° 0 mm 0 m/S 727 mmHg 49%
    17:00 +31°C° 0 mm 0 m/S 727 mmHg 55%
    18:00 +29°C° 0 mm 0 m/S 728 mmHg 61%
    19:00 +29°C° 0 mm 1 m/S 728 mmHg 67%
    20:00 +28°C° 0,1 mm 1 m/S 729 mmHg 71%
    21:00 +27°C° 0,1 mm 1 m/S 729 mmHg 76%
    22:00 +27°C° 0,1 mm 1 m/S 730 mmHg 80%
    23:00 +26°C° 0,1 mm 1 m/S 730 mmHg 84%

    übermorgen, 24 November, Freitag

    Zeit Temperatur Niederschläge Wind Luftdruck Luftfeuchtigkeit
    00:00 +25°C° 0,1 mm 1 m/S 730 mmHg 89%
    01:00 +25°C° 0,1 mm 1 m/S 729 mmHg 93%
    02:00 +24°C° 0,1 mm 1 m/S 729 mmHg 94%
    03:00 +24°C° 0,1 mm 1 m/S 729 mmHg 95%
    04:00 +24°C° 0,1 mm 1 m/S 729 mmHg 96%
    05:00 +25°C° 0 mm 1 m/S 730 mmHg 93%
    06:00 +25°C° 0 mm 2 m/S 730 mmHg 90%
    07:00 +26°C° 0 mm 2 m/S 731 mmHg 88%
    08:00 +28°C° 0 mm 2 m/S 731 mmHg 77%
    09:00 +30°C° 0 mm 2 m/S 731 mmHg 67%
    10:00 +32°C° 0 mm 2 m/S 731 mmHg 56%
    11:00 +34°C° 0,1 mm 2 m/S 730 mmHg 52%
    12:00 +35°C° 0,1 mm 2 m/S 729 mmHg 49%
    13:00 +36°C° 0,1 mm 2 m/S 728 mmHg 45%
    14:00 +36°C° 0 mm 2 m/S 728 mmHg 47%
    15:00 +34°C° 0 mm 1 m/S 728 mmHg 50%
    16:00 +33°C° 0 mm 1 m/S 727 mmHg 52%
    17:00 +31°C° 0,1 mm 1 m/S 728 mmHg 59%
    18:00 +29°C° 0,1 mm 1 m/S 729 mmHg 66%
    19:00 +27°C° 0,1 mm 1 m/S 729 mmHg 73%
    20:00 +27°C° 0,3 mm 1 m/S 730 mmHg 76%
    21:00 +26°C° 0,3 mm 1 m/S 730 mmHg 79%
    22:00 +26°C° 0,3 mm 1 m/S 731 mmHg 82%
    23:00 +25°C° 0,7 mm 1 m/S 730 mmHg 87%

    25 November, Samstag

    Zeit Temperatur Niederschläge Wind Luftdruck Luftfeuchtigkeit
    00:00 +24°C° 0,7 mm 1 m/S 730 mmHg 91%
    01:00 +24°C° 0,7 mm 1 m/S 730 mmHg 96%
    02:00 +24°C° 0,1 mm 1 m/S 730 mmHg 96%
    03:00 +23°C° 0,1 mm 1 m/S 730 mmHg 97%
    04:00 +23°C° 0,1 mm 1 m/S 730 mmHg 97%
    05:00 +24°C° 0 mm 1 m/S 730 mmHg 96%
    06:00 +24°C° 0 mm 1 m/S 731 mmHg 94%
    07:00 +25°C° 0 mm 1 m/S 732 mmHg 92%
    08:00 +27°C° 0 mm 1 m/S 732 mmHg 82%
    09:00 +29°C° 0 mm 1 m/S 732 mmHg 71%
    10:00 +31°C° 0 mm 2 m/S 732 mmHg 60%
    11:00 +34°C° 0 mm 2 m/S 731 mmHg 54%
    12:00 +34°C° 0 mm 1 m/S 730 mmHg 48%
    13:00 +35°C° 0 mm 1 m/S 730 mmHg 42%
    14:00 +34°C° 0 mm 1 m/S 729 mmHg 46%
    15:00 +33°C° 0 mm 1 m/S 729 mmHg 50%
    16:00 +32°C° 0 mm 1 m/S 729 mmHg 54%
    17:00 +31°C° 0,4 mm 1 m/S 729 mmHg 62%
    18:00 +29°C° 0,4 mm 1 m/S 730 mmHg 70%
    19:00 +27°C° 0,4 mm 1 m/S 730 mmHg 78%
    20:00 +26°C° 0,6 mm 1 m/S 731 mmHg 83%
    21:00 +26°C° 0,6 mm 1 m/S 731 mmHg 87%
    22:00 +25°C° 0,6 mm 1 m/S 732 mmHg 92%
    23:00 +25°C° 1 mm 1 m/S 732 mmHg 93%

    26 November, Sonntag

    Zeit Temperatur Niederschläge Wind Luftdruck Luftfeuchtigkeit
    00:00 +24°C° 1 mm 1 m/S 731 mmHg 95%
    01:00 +24°C° 1 mm 1 m/S 731 mmHg 96%
    02:00 +24°C° 0,7 mm 1 m/S 731 mmHg 96%
    03:00 +24°C° 0,7 mm 1 m/S 731 mmHg 96%
    04:00 +24°C° 0,7 mm 1 m/S 731 mmHg 96%
    05:00 +24°C° 0 mm 1 m/S 732 mmHg 95%
    06:00 +24°C° 0 mm 1 m/S 732 mmHg 94%
    07:00 +25°C° 0 mm 1 m/S 733 mmHg 93%
    08:00 +26°C° 0 mm 1 m/S 733 mmHg 83%
    09:00 +28°C° 0 mm 1 m/S 733 mmHg 74%
    10:00 +30°C° 0 mm 1 m/S 733 mmHg 64%
    11:00 +32°C° 0 mm 1 m/S 732 mmHg 55%
    12:00 +34°C° 0 mm 1 m/S 731 mmHg 45%
    13:00 +37°C° 0 mm 1 m/S 730 mmHg 36%
    14:00 +36°C° 0 mm 1 m/S 730 mmHg 37%
    15:00 +35°C° 0 mm 1 m/S 729 mmHg 37%
    16:00 +35°C° 0 mm 1 m/S 729 mmHg 38%
    17:00 +32°C° 0 mm 1 m/S 730 mmHg 49%
    18:00 +29°C° 0 mm 1 m/S 730 mmHg 60%
    19:00 +27°C° 0 mm 1 m/S 731 mmHg 70%
    20:00 +26°C° 0 mm 1 m/S 731 mmHg 76%
    21:00 +25°C° 0 mm 1 m/S 731 mmHg 81%
    22:00 +24°C° 0 mm 1 m/S 732 mmHg 87%
    23:00 +24°C° 0 mm 1 m/S 731 mmHg 88%

    27 November, Montag

    Zeit Temperatur Niederschläge Wind Luftdruck Luftfeuchtigkeit
    00:00 +24°C° 0 mm 1 m/S 731 mmHg 89%
    01:00 +23°C° 0 mm 1 m/S 731 mmHg 90%
    02:00 +23°C° 0 mm 1 m/S 731 mmHg 89%
    03:00 +23°C° 0 mm 1 m/S 731 mmHg 89%
    04:00 +22°C° 0 mm 1 m/S 731 mmHg 88%
    05:00 +23°C° 0 mm 1 m/S 731 mmHg 84%
    06:00 +24°C° 0 mm 1 m/S 732 mmHg 81%
    07:00 +24°C° 0 mm 2 m/S 732 mmHg 77%
    08:00 +27°C° 0 mm 2 m/S 732 mmHg 68%
    09:00 +30°C° 0 mm 2 m/S 732 mmHg 59%
    10:00 +32°C° 0 mm 2 m/S 732 mmHg 50%
    11:00 +34°C° 0 mm 1 m/S 731 mmHg 44%
    12:00 +36°C° 0 mm 1 m/S 731 mmHg 39%
    13:00 +36°C° 0 mm 0 m/S 730 mmHg 34%
    14:00 +35°C° 0 mm 0 m/S 729 mmHg 37%
    15:00 +33°C° 0 mm 0 m/S 729 mmHg 41%
    16:00 +32°C° 0 mm 0 m/S 729 mmHg 44%
    17:00 +30°C° 0 mm 0 m/S 729 mmHg 48%
    18:00 +29°C° 0 mm 0 m/S 729 mmHg 53%
    19:00 +27°C° 0 mm 0 m/S 730 mmHg 57%
    20:00 +27°C° 0 mm 0 m/S 730 mmHg 59%
    21:00 +26°C° 0 mm 0 m/S 730 mmHg 60%
    22:00 +26°C° 0 mm 0 m/S 731 mmHg 62%
    23:00 +25°C° 0,2 mm 0 m/S 730 mmHg 67%
    Mehr zeigen